Location: Sternwarte_Laufen
(47.9344°N, 12.9346°E)
Time: 09:22:25
(UTC+02:00)

Amateur Radio Satellites - All Passes

Search period start: 26 March 2017 08:52
Search period end: 27 March 2017 08:52
Location: Sternwarte_Laufen, 47.9344°N, 12.9346°E

Satellite Date Start Highest point End Downlink Frequencies (MHz)
Time Altitude Azimuth
HO-68 26 Mar 08:56:21 09:03:33 74° 105° (ESE) 09:10:43 435.675
TIGRISAT 26 Mar 09:04:47 09:08:02 19° 61° (ENE) 09:11:16 435.000
UNISAT 6 26 Mar 09:14:08 09:17:52 24° 63° (ENE) 09:21:35 437.425
UWE-3 26 Mar 09:15:05 09:19:15 42° 98° (E) 09:23:16 435.000/436.395/437.385
NO-84 26 Mar 09:19:14 09:21:58 42° 336° (NNW) 09:24:47 435.350 FM
YUBILEINY 26 Mar 09:24:30 09:33:04 57° 286° (WNW) 09:41:39 435.215
DELFI C3 26 Mar 09:45:23 09:47:19 13° 89° (E) 09:49:16 145.870
CUBEBUG 2 26 Mar 09:47:10 09:51:35 58° 288° (WNW) 09:55:49 437.445
Oscar 11 26 Mar 09:51:19 09:55:30 47° 99° (E) 09:59:38 .
AAUSAT CUBESAT 2 26 Mar 09:53:11 09:57:17 65° 287° (WNW) 10:01:24 437.432
PCSat 26 Mar 09:55:42 10:00:26 32° 111° (ESE) 10:05:11 145.827
ZACube-1 26 Mar 09:57:27 10:01:44 70° 102° (ESE) 10:05:53 437.345
SEEDS 26 Mar 10:07:09 10:10:38 26° 294° (WNW) 10:14:07 437.485
CUTE 1.7 + AOD 2 26 Mar 10:13:17 10:16:01 17° 298° (WNW) 10:18:45 437.475
PRISM 26 Mar 10:14:03 10:17:59 48° 260° (W) 10:21:58 437.425
POLYITAN 1 26 Mar 10:23:17 10:24:40 11° 57° (ENE) 10:26:02 437.675
FO-29 26 Mar 10:25:24 10:33:09 72° 71° (ENE) 10:40:23 435.910
AO-73 26 Mar 10:26:22 10:30:35 65° 287° (WNW) 10:34:42 145.935
QB50P2 26 Mar 10:27:08 10:29:10 13° 58° (ENE) 10:31:11 145.880/145.840
TIGRISAT 26 Mar 10:39:37 10:44:17 63° 259° (W) 10:48:55 435.000
DUCHIFAT 1 26 Mar 10:40:10 10:42:20 14° 59° (ENE) 10:44:30 145.980
HO-68 26 Mar 10:44:51 10:50:41 28° 306° (NW) 10:56:30 435.675
UNISAT 6 26 Mar 10:49:47 10:54:19 47° 261° (W) 10:58:50 437.425
UWE-3 26 Mar 10:52:04 10:55:27 22° 297° (WNW) 10:58:45 435.000/436.395/437.385
NO-84 26 Mar 10:57:46 11:00:03 20° 357° (N) 11:02:25 435.350 FM
DELFI C3 26 Mar 11:18:34 11:22:31 61° 287° (WNW) 11:26:27 145.870
NANOSAT C BR1 26 Mar 11:23:45 11:27:40 37° 68° (ENE) 11:31:37 145.865
AIST 2D 26 Mar 11:25:38 11:29:08 65° 75° (ENE) 11:32:40 435.315
EO-79 26 Mar 11:27:45 11:31:49 43° 70° (ENE) 11:35:54 145.935-145.965
YUBILEINY 26 Mar 11:27:51 11:32:15 14° 312° (NW) 11:36:39 435.215
Oscar 11 26 Mar 11:28:08 11:31:20 21° 297° (WNW) 11:34:31 .
LO-87 26 Mar 11:30:57 11:33:54 23° 94° (E) 11:36:50 145.935 - 145.965
ZACube-1 26 Mar 11:35:08 11:37:28 15° 301° (WNW) 11:39:47 437.345
PCSat 26 Mar 11:38:23 11:43:38 49° 311° (NW) 11:48:56 145.827
Oscar 19 26 Mar 11:43:34 11:44:40 11° 51° (NE) 11:45:48 437.125/150
POLYITAN 1 26 Mar 11:55:26 11:59:44 84° 77° (ENE) 12:04:03 437.675
QB50P2 26 Mar 12:00:03 12:04:21 82° 257° (WSW) 12:08:40 145.880/145.840
ESTCUBE 1 26 Mar 12:04:21 12:08:21 30° 95° (E) 12:12:20 437.505/2401.250
FO-29 26 Mar 12:12:07 12:18:37 29° 269° (W) 12:24:51 435.910
DUCHIFAT 1 26 Mar 12:13:11 12:17:26 77° 258° (WSW) 12:21:43 145.980
RS-15 26 Mar 12:18:59 12:29:09 34° 104° (ESE) 12:39:32 29.354- 29.394
BUGSAT 1 26 Mar 12:31:38 12:35:49 60° 72° (ENE) 12:40:02 437.445
SPROUT 26 Mar 12:32:39 12:35:29 17° 90° (E) 12:38:17 437.525
NO-84 26 Mar 12:35:30 12:38:14 30° 19° (NNE) 12:41:07 435.350 FM
DX 1 26 Mar 12:59:15 13:01:52 15° 90° (E) 13:04:29 434.975-435.025
NANOSAT C BR1 26 Mar 12:59:58 13:03:29 24° 266° (W) 13:07:00 145.865
LO-87 26 Mar 13:04:09 13:07:22 29° 292° (WNW) 13:10:33 145.935 - 145.965
EO-79 26 Mar 13:04:32 13:07:47 21° 268° (W) 13:11:03 145.935-145.965
Oscar 19 26 Mar 13:17:57 13:22:59 60° 70° (ENE) 13:28:02 437.125/150
VELOX 1 26 Mar 13:19:07 13:23:32 54° 101° (E) 13:27:54 145.980
PCSat 26 Mar 13:25:10 13:28:23 16° 335° (NNW) 13:31:36 145.827
AO-7 26 Mar 13:27:18 13:33:17 23° 44° (NE) 13:39:14 .
Gurwin Techsat 1B 26 Mar 13:28:05 13:33:07 45° 67° (ENE) 13:38:11 435.225
ITAMSAT 1 26 Mar 13:29:15 13:30:25 11° 50° (NE) 13:31:35 435.822/435.867
POLYITAN 1 26 Mar 13:34:53 13:36:07 11° 273° (W) 13:37:21 437.675
UKube-1 26 Mar 13:39:37 13:43:20 27° 95° (E) 13:47:02 .
ESTCUBE 1 26 Mar 13:41:08 13:45:09 33° 294° (WNW) 13:49:10 437.505/2401.250
50 SAT 26 Mar 14:02:37 14:06:06 69° 287° (WNW) 14:09:36 437.505
SPROUT 26 Mar 14:07:31 14:11:44 54° 288° (WNW) 14:15:54 437.525
BUGSAT 1 26 Mar 14:09:05 14:11:34 15° 270° (W) 14:14:04 437.445
NO-84 26 Mar 14:12:51 14:15:55 58° 217° (SW) 14:19:16 435.350 FM
SO-50 26 Mar 14:22:27 14:24:12 12° 109° (ESE) 14:25:57 436.795
RS-15 26 Mar 14:28:16 14:40:25 84° 309° (NW) 14:52:56 29.354- 29.394
DX 1 26 Mar 14:34:06 14:38:28 63° 288° (WNW) 14:42:48 434.975-435.025
VELOX 1 26 Mar 14:56:23 14:59:37 20° 299° (WNW) 15:02:50 145.980
Oscar 19 26 Mar 14:58:56 15:02:42 20° 269° (W) 15:06:29 437.125/150
ITAMSAT 1 26 Mar 15:03:42 15:08:49 58° 70° (ENE) 15:13:58 435.822/435.867
Gurwin Techsat 1B 26 Mar 15:08:39 15:13:14 29° 266° (W) 15:17:51 435.225
BEESAT 26 Mar 15:10:01 15:13:37 21° 92° (E) 15:17:11 436.000
UKube-1 26 Mar 15:15:28 15:19:25 34° 293° (WNW) 15:23:20 .
AO-7 26 Mar 15:16:30 15:24:48 75° 66° (ENE) 15:33:07 .
ITUPSAT 1 26 Mar 15:25:36 15:29:42 28° 95° (E) 15:33:47 437.325
MOZHAYETS 4 26 Mar 15:31:36 15:34:11 15° 89° (E) 15:36:46
SO-50 26 Mar 15:59:18 16:03:56 82° 127° (SE) 16:08:33 436.795
DOVE 4 26 Mar 16:25:25 16:26:34 11° 52° (NE) 16:27:44 437.250
RS-15 26 Mar 16:43:28 16:54:56 42° 339° (NNW) 17:06:28 29.354- 29.394
ITAMSAT 1 26 Mar 16:44:39 16:48:40 22° 268° (W) 16:52:42 435.822/435.867
BEESAT 26 Mar 16:47:04 16:51:42 52° 291° (WNW) 16:56:19 436.000
KKS-1 26 Mar 16:51:53 16:55:18 21° 92° (E) 16:58:40 437.445
CUTE-I 26 Mar 16:52:48 16:56:05 17° 55° (NE) 16:59:23 437.470
PCSat 26 Mar 16:56:37 17:00:08 17° 28° (NNE) 17:03:38 145.827
O/OREOS (USA 219) 26 Mar 17:00:43 17:04:30 27° 104° (ESE) 17:08:20 437.305
ITUPSAT 1 26 Mar 17:03:13 17:07:38 39° 293° (WNW) 17:12:02 437.325
XW-2F 26 Mar 17:06:19 17:07:58 13° 61° (ENE) 17:09:38 145.980 - 146.000
LilacSat-2 26 Mar 17:06:41 17:08:40 14° 61° (ENE) 17:10:39 437.200
MOZHAYETS 4 26 Mar 17:07:18 17:11:51 69° 286° (WNW) 17:16:22
AO-7 26 Mar 17:11:24 17:18:19 28° 267° (W) 17:25:16 .
STARS 26 Mar 17:29:01 17:32:31 22° 93° (E) 17:35:58 437.465
XW-2D 26 Mar 17:30:26 17:33:28 23° 66° (ENE) 17:36:30 145.860 - 145.880
NUDT-PHONESAT 26 Mar 17:31:36 17:34:17 19° 65° (ENE) 17:36:57 437.300
YUBILEINY 26 Mar 17:33:56 17:40:34 23° 57° (ENE) 17:47:10 435.215
XW-2B 26 Mar 17:36:13 17:39:22 25° 67° (ENE) 17:42:32 145.730 - 145.750
KAITUO 1B 26 Mar 17:38:10 17:41:05 22° 66° (ENE) 17:44:01 145.475/437.950
SO-50 26 Mar 17:41:18 17:44:56 22° 327° (NNW) 17:48:33 436.795
HO-68 26 Mar 17:43:46 17:48:35 20° 49° (NE) 17:53:24 435.675
XW-2C 26 Mar 17:46:04 17:49:29 32° 69° (ENE) 17:52:54 145.795 - 145.815
CUBESAT XI-V 26 Mar 17:58:22 18:03:02 73° 102° (ESE) 18:07:41 437.345
DOVE 4 26 Mar 17:58:31 18:03:11 63° 72° (ENE) 18:08:11 437.250
KKS-1 26 Mar 18:27:46 18:32:06 48° 290° (WNW) 18:36:24 437.445
CUTE-I 26 Mar 18:30:01 18:35:24 90° 75° (ENE) 18:40:50 437.470
XW-2F 26 Mar 18:37:52 18:41:38 67° 259° (WSW) 18:45:25 145.980 - 146.000
LilacSat-2 26 Mar 18:38:43 18:42:30 61° 259° (W) 18:46:18 437.200
PCSat 26 Mar 18:39:21 18:44:44 57° 51° (NE) 18:50:04 145.827
O/OREOS (USA 219) 26 Mar 18:39:28 18:43:45 40° 304° (WNW) 18:48:04 437.305
MOZHAYETS 4 26 Mar 18:47:33 18:48:09 10° 306° (NW) 18:48:43
RS-15 26 Mar 19:00:12 19:11:29 38° 12° (NNE) 19:22:33 29.354- 29.394
XW-2D 26 Mar 19:04:05 19:07:32 32° 264° (W) 19:10:59 145.860 - 145.880
NUDT-PHONESAT 26 Mar 19:04:26 19:07:58 39° 262° (W) 19:11:30 437.300
STARS 26 Mar 19:04:50 19:09:03 43° 291° (WNW) 19:13:13 437.465
XW-2B 26 Mar 19:10:10 19:13:29 28° 264° (W) 19:16:51 145.730 - 145.750
KAITUO 1B 26 Mar 19:11:34 19:14:58 32° 263° (W) 19:18:22 145.475/437.950
CUBEBUG 2 26 Mar 19:12:25 19:16:10 24° 63° (ENE) 19:19:52 437.445
AAUSAT CUBESAT 2 26 Mar 19:12:59 19:15:18 15° 61° (ENE) 19:17:39 437.432
XW-2A 26 Mar 19:20:15 19:23:39 56° 73° (ENE) 19:27:03 145.665 - 145.685
XW-2C 26 Mar 19:20:44 19:23:45 22° 266° (W) 19:26:47 145.795 - 145.815
ZACube-1 26 Mar 19:23:06 19:24:49 12° 57° (ENE) 19:26:31 437.345
SEEDS 26 Mar 19:26:01 19:29:50 36° 69° (ENE) 19:33:40 437.485
SO-50 26 Mar 19:26:30 19:27:06 10° 351° (N) 19:27:41 436.795
HO-68 26 Mar 19:28:07 19:35:15 77° 69° (ENE) 19:42:25 435.675
YUBILEINY 26 Mar 19:29:59 19:38:45 88° 81° (E) 19:47:29 435.215
M-CUBED/EXP-1 PRIME 26 Mar 19:30:31 19:35:01 48° 105° (ESE) 19:39:33 437.505
CUTE 1.7 + AOD 2 26 Mar 19:32:02 19:36:11 62° 73° (ENE) 19:40:21 437.475
CUBESAT XI-V 26 Mar 19:37:00 19:39:52 16° 301° (WNW) 19:42:44 437.345
DOVE 4 26 Mar 19:38:10 19:41:23 18° 272° (W) 19:44:45 437.250
AO-73 26 Mar 19:49:57 19:53:07 19° 62° (ENE) 19:56:14 145.935
CUTE-I 26 Mar 20:13:24 20:16:12 14° 273° (W) 20:19:01 437.470
UWE-3 26 Mar 20:14:36 20:19:09 54° 72° (ENE) 20:23:38 435.000/436.395/437.385
STRAND 1 26 Mar 20:21:34 20:26:33 50° 100° (E) 20:31:30 437.568
PCSat 26 Mar 20:23:18 20:27:48 27° 250° (WSW) 20:32:16 145.827
DELFI C3 26 Mar 20:34:42 20:36:35 13° 60° (ENE) 20:38:29 145.870
AAUSAT CUBESAT 2 26 Mar 20:46:14 20:50:18 64° 259° (W) 20:54:24 437.432
CUBEBUG 2 26 Mar 20:47:52 20:52:28 49° 261° (W) 20:57:05 437.445
Oscar 11 26 Mar 20:49:03 20:53:16 56° 72° (ENE) 20:57:31 .
XW-2A 26 Mar 20:55:49 20:56:46 11° 271° (W) 20:57:44 145.665 - 145.685
ZACube-1 26 Mar 20:55:50 21:00:24 83° 74° (ENE) 21:04:54 437.345
SEEDS 26 Mar 21:02:16 21:05:38 23° 267° (W) 21:09:00 437.485
M-CUBED/EXP-1 PRIME 26 Mar 21:05:25 21:09:11 26° 302° (WNW) 21:13:01 437.505
SO-50 26 Mar 21:07:48 21:09:38 12° 17° (NNE) 21:11:28 436.795
ISS 26 Mar 21:07:54 21:10:12 18° 138° (SE) 21:12:30 437.550
Tancredo 1 26 Mar 21:08:37 21:10:59 19° 139° (SE) 21:13:20 437.200
CUTE 1.7 + AOD 2 26 Mar 21:10:08 21:12:26 14° 271° (W) 21:14:45 437.475
RS-15 26 Mar 21:14:22 21:26:45 67° 44° (NE) 21:38:38 29.354- 29.394
HO-68 26 Mar 21:18:09 21:23:41 24° 270° (W) 21:29:16 435.675
AO-73 26 Mar 21:24:30 21:28:58 57° 260° (W) 21:33:23 145.935
YUBILEINY 26 Mar 21:28:11 21:34:24 22° 283° (WNW) 21:40:37 435.215
AO-85 26 Mar 21:41:05 21:45:21 54° 123° (ESE) 21:49:23 145.980
PRISM 26 Mar 21:52:29 21:55:19 18° 92° (E) 21:58:09 437.425
UWE-3 26 Mar 21:52:32 21:55:54 19° 269° (W) 21:59:14 435.000/436.395/437.385
STRAND 1 26 Mar 22:01:17 22:05:27 26° 299° (WNW) 22:09:36 437.568
DELFI C3 26 Mar 22:06:59 22:10:51 68° 258° (WSW) 22:14:48 145.870
LO-87 26 Mar 22:10:56 22:13:21 17° 64° (ENE) 22:15:46 145.935 - 145.965
Oscar 11 26 Mar 22:26:59 22:29:46 17° 270° (W) 22:32:33 .
TIGRISAT 26 Mar 22:28:24 22:31:48 21° 92° (E) 22:35:07 435.000
BEESAT 3 26 Mar 22:29:47 22:32:39 20° 114° (ESE) 22:35:33 437.485
ZACube-1 26 Mar 22:35:24 22:37:14 12° 273° (W) 22:39:03 437.345
UNISAT 6 26 Mar 22:38:14 22:42:06 28° 94° (E) 22:45:51 437.425
ISS 26 Mar 22:43:02 22:46:19 88° 139° (SE) 22:49:36 437.550
Tancredo 1 26 Mar 22:43:37 22:46:47 84° 333° (NNW) 22:49:59 437.200
BEESAT 2 26 Mar 22:46:37 22:48:14 12° 110° (ESE) 22:49:52 435.950
VELOX 1 26 Mar 22:47:11 22:48:07 11° 55° (NE) 22:49:02 145.980
SO-50 26 Mar 22:47:19 22:51:28 33° 40° (NE) 22:55:33 436.795
ESTCUBE 1 26 Mar 23:06:57 23:11:10 42° 69° (ENE) 23:15:24 437.505/2401.250
FO-29 26 Mar 23:17:34 23:23:23 42° 95° (E) 23:28:35 435.910
AO-85 26 Mar 23:22:30 23:26:00 24° 322° (NW) 23:29:22 145.980
PRISM 26 Mar 23:26:51 23:30:53 50° 289° (WNW) 23:34:54 437.425
RS-15 26 Mar 23:27:29 23:38:52 47° 249° (WSW) 23:49:47 29.354- 29.394
SPROUT 26 Mar 23:29:11 23:32:26 21° 63° (ENE) 23:35:41 437.525
POLYITAN 1 26 Mar 23:39:24 23:40:19 11° 87° (E) 23:41:14 437.675
LO-87 26 Mar 23:43:06 23:46:30 40° 262° (W) 23:49:59 145.935 - 145.965
QB50P2 26 Mar 23:43:06 23:45:04 13° 88° (E) 23:47:00 145.880/145.840
DUCHIFAT 1 26 Mar 23:55:16 23:57:18 13° 89° (E) 23:59:20 145.980
DX 1 26 Mar 23:57:46 00:01:06 22° 62° (ENE) 00:04:26 434.975-435.025
TIGRISAT 27 Mar 00:04:29 00:08:44 44° 291° (WNW) 00:12:51 435.000
BEESAT 3 27 Mar 00:06:04 00:09:55 51° 313° (NW) 00:13:51 437.485
UNISAT 6 27 Mar 00:14:49 00:18:51 33° 293° (WNW) 00:22:45 437.425
VELOX 1 27 Mar 00:19:22 00:23:45 73° 73° (ENE) 00:28:12 145.980
ISS 27 Mar 00:19:51 00:23:00 42° 356° (N) 00:26:10 437.550
Tancredo 1 27 Mar 00:20:07 00:23:10 40° 358° (N) 00:26:13 437.200
AIST 2D 27 Mar 00:20:33 00:23:57 47° 99° (E) 00:27:19 435.315
BEESAT 2 27 Mar 00:21:25 00:25:23 82° 307° (NW) 00:29:27 435.950
SO-50 27 Mar 00:27:46 00:32:00 41° 240° (WSW) 00:36:13 436.795
UKube-1 27 Mar 00:37:06 00:41:03 36° 67° (ENE) 00:45:01 .
50 SAT 27 Mar 00:39:04 00:42:30 76° 75° (ENE) 00:45:59 437.505
NANOSAT C BR1 27 Mar 00:39:50 00:43:52 40° 98° (E) 00:47:50 145.865
EO-79 27 Mar 00:44:21 00:48:30 49° 100° (E) 00:52:36 145.935-145.965
ESTCUBE 1 27 Mar 00:44:33 00:48:09 23° 267° (W) 00:51:44 437.505/2401.250
FO-29 27 Mar 01:02:50 01:08:23 35° 299° (WNW) 01:13:24 435.910
SPROUT 27 Mar 01:03:55 01:08:04 46° 261° (W) 01:12:15 437.525
POLYITAN 1 27 Mar 01:12:27 01:16:43 84° 286° (WNW) 01:20:56 437.675
QB50P2 27 Mar 01:17:06 01:21:21 71° 287° (WNW) 01:25:33 145.880/145.840
Oscar 19 27 Mar 01:27:04 01:30:13 16° 89° (E) 01:33:20 437.125/150
O/OREOS (USA 219) 27 Mar 01:28:01 01:30:56 16° 45° (NE) 01:33:50 437.305
DUCHIFAT 1 27 Mar 01:29:15 01:33:28 68° 286° (WNW) 01:37:37 145.980
DX 1 27 Mar 01:32:49 01:37:00 46° 261° (W) 01:41:14 434.975-435.025
Gurwin Techsat 1B 27 Mar 01:42:23 01:44:46 13° 86° (E) 01:47:10 435.225
BUGSAT 1 27 Mar 01:45:07 01:49:19 64° 102° (ESE) 01:53:25 437.445
BEESAT 3 27 Mar 01:46:33 01:48:26 13° 334° (NNW) 01:50:19 437.485
AIST 2D 27 Mar 01:54:56 01:56:49 14° 297° (WNW) 01:58:41 435.315
Tancredo 1 27 Mar 01:56:27 01:59:37 61° 17° (NNE) 02:02:48 437.200
ISS 27 Mar 01:56:33 01:59:49 58° 16° (NNE) 02:03:05 437.550
VELOX 1 27 Mar 01:58:35 02:00:44 13° 272° (W) 02:02:54 145.980
BEESAT 2 27 Mar 02:01:10 02:03:48 17° 329° (NNW) 02:06:28 435.950
UKube-1 27 Mar 02:13:34 02:17:09 25° 265° (W) 02:20:47 .
NANOSAT C BR1 27 Mar 02:16:01 02:19:21 23° 296° (WNW) 02:22:39 145.865
BEESAT 27 Mar 02:19:22 02:23:43 36° 66° (ENE) 02:28:05 436.000
EO-79 27 Mar 02:20:52 02:23:56 20° 298° (WNW) 02:26:58 145.935-145.965
ITUPSAT 1 27 Mar 02:35:21 02:39:57 49° 69° (ENE) 02:44:35 437.325
MOZHAYETS 4 27 Mar 02:36:25 02:39:58 22° 63° (ENE) 02:43:32
POLYITAN 1 27 Mar 02:50:32 02:51:47 11° 304° (WNW) 02:53:04 437.675
Oscar 19 27 Mar 03:04:57 03:10:08 77° 287° (WNW) 03:15:18 437.125/150
O/OREOS (USA 219) 27 Mar 03:06:22 03:11:01 87° 251° (WSW) 03:15:38 437.305
ITAMSAT 1 27 Mar 03:14:21 03:17:19 15° 88° (E) 03:20:15 435.822/435.867
AO-7 27 Mar 03:15:37 03:20:59 18° 87° (E) 03:26:19 .
Gurwin Techsat 1B 27 Mar 03:20:09 03:25:31 86° 105° (ESE) 03:30:51 435.225
BUGSAT 1 27 Mar 03:21:40 03:24:11 16° 300° (WNW) 03:26:41 437.445
CUBESAT XI-V 27 Mar 03:30:04 03:32:38 15° 58° (ENE) 03:35:12 437.345
Tancredo 1 27 Mar 03:32:44 03:35:38 31° 216° (SW) 03:38:31 437.200
ISS 27 Mar 03:33:08 03:36:12 35° 215° (SW) 03:39:15 437.550
KKS-1 27 Mar 03:52:56 03:56:50 30° 65° (ENE) 04:00:44 437.445
BEESAT 27 Mar 03:57:19 04:01:32 31° 264° (W) 04:05:46 436.000
MOZHAYETS 4 27 Mar 04:12:24 04:16:51 48° 261° (W) 04:21:19
ITUPSAT 1 27 Mar 04:14:16 04:18:03 23° 267° (W) 04:21:49 437.325
STARS 27 Mar 04:28:36 04:32:29 31° 66° (ENE) 04:36:25 437.465
AO-85 27 Mar 04:29:09 04:32:13 21° 36° (NE) 04:35:17 145.980
Oscar 19 27 Mar 04:46:06 04:48:37 14° 306° (NW) 04:51:09 437.125/150
M-CUBED/EXP-1 PRIME 27 Mar 04:47:55 04:49:47 13° 50° (NE) 04:51:43 437.505
O/OREOS (USA 219) 27 Mar 04:48:25 04:49:38 11° 264° (W) 04:50:51 437.305
ITAMSAT 1 27 Mar 04:52:12 04:57:27 82° 287° (WNW) 05:02:38 435.822/435.867
Gurwin Techsat 1B 27 Mar 05:01:25 05:04:48 17° 304° (NW) 05:08:10 435.225
CUBESAT XI-V 27 Mar 05:04:49 05:09:24 80° 257° (WSW) 05:14:02 437.345
BEESAT 3 27 Mar 05:06:06 05:07:24 11° 23° (NNE) 05:08:41 437.485
AO-7 27 Mar 05:06:43 05:15:05 79° 108° (ESE) 05:23:23 .
KKS-1 27 Mar 05:29:15 05:33:19 33° 263° (W) 05:37:24 437.445
DOVE 4 27 Mar 05:54:47 05:58:06 16° 87° (E) 06:01:22 437.250
STRAND 1 27 Mar 06:04:04 06:07:23 17° 57° (ENE) 06:10:41 437.568
STARS 27 Mar 06:04:51 06:08:48 31° 264° (W) 06:12:47 437.465
AO-85 27 Mar 06:09:03 06:12:56 61° 235° (SW) 06:16:52 145.980
LilacSat-2 27 Mar 06:10:28 06:11:39 11° 88° (E) 06:12:49 437.200
M-CUBED/EXP-1 PRIME 27 Mar 06:19:47 06:23:33 83° 254° (WSW) 06:27:40 437.505
NUDT-PHONESAT 27 Mar 06:32:22 06:34:34 15° 91° (E) 06:36:46 437.300
ITAMSAT 1 27 Mar 06:33:20 06:36:07 15° 306° (NW) 06:38:54 435.822/435.867
XW-2D 27 Mar 06:33:22 06:36:10 20° 93° (E) 06:38:58 145.860 - 145.880
XW-2B 27 Mar 06:39:10 06:42:10 22° 94° (E) 06:45:08 145.730 - 145.750
KAITUO 1B 27 Mar 06:39:40 06:42:18 18° 92° (E) 06:44:55 145.475/437.950
YUBILEINY 27 Mar 06:41:43 06:47:47 22° 76° (ENE) 06:53:50 435.215
BEESAT 3 27 Mar 06:42:15 06:46:04 39° 44° (NE) 06:49:51 437.485
CUTE-I 27 Mar 06:43:57 06:48:30 27° 94° (E) 06:53:01 437.470
XW-2C 27 Mar 06:49:08 06:52:27 28° 96° (E) 06:55:43 145.795 - 145.815
HO-68 27 Mar 06:55:45 06:57:18 11° 82° (E) 06:58:51 435.675
BEESAT 2 27 Mar 06:58:35 07:02:08 28° 40° (NE) 07:05:41 435.950
AO-7 27 Mar 07:00:14 07:07:08 31° 310° (NW) 07:14:01 .
NO-84 27 Mar 07:11:25 07:13:37 20° 135° (SE) 07:15:50 435.350 FM
DOVE 4 27 Mar 07:31:02 07:36:23 79° 286° (WNW) 07:41:38 437.250
XW-2F 27 Mar 07:40:37 07:44:22 74° 284° (WNW) 07:48:04 145.980 - 146.000
STRAND 1 27 Mar 07:40:45 07:45:55 82° 254° (WSW) 07:51:07 437.568
LilacSat-2 27 Mar 07:42:37 07:46:22 65° 286° (WNW) 07:50:05 437.200
NUDT-PHONESAT 27 Mar 08:05:13 08:08:45 44° 288° (WNW) 08:12:15 437.300
XW-2D 27 Mar 08:07:03 08:10:29 35° 290° (WNW) 08:13:55 145.860 - 145.880
XW-2A 27 Mar 08:11:37 08:14:46 35° 97° (E) 08:17:54 145.665 - 145.685
KAITUO 1B 27 Mar 08:13:03 08:16:28 36° 290° (WNW) 08:19:53 145.475/437.950
XW-2B 27 Mar 08:13:04 08:16:25 31° 291° (WNW) 08:19:45 145.730 - 145.750
BEESAT 3 27 Mar 08:20:07 08:23:33 27° 243° (WSW) 08:26:56 437.485
XW-2C 27 Mar 08:23:29 08:26:34 24° 293° (WNW) 08:29:38 145.795 - 145.815
CUTE-I 27 Mar 08:23:38 08:28:46 48° 292° (WNW) 08:33:52 437.470
AAUSAT CUBESAT 2 27 Mar 08:25:47 08:28:20 16° 90° (E) 08:30:52 437.432
YUBILEINY 27 Mar 08:34:35 08:43:21 89° 98° (E) 08:52:08 435.215
CUBEBUG 2 27 Mar 08:35:36 08:39:26 27° 94° (E) 08:43:07 437.445
BEESAT 2 27 Mar 08:36:12 08:40:04 43° 239° (WSW) 08:43:53 435.950
SEEDS 27 Mar 08:41:25 08:45:26 43° 98° (E) 08:49:26 437.485
ZACube-1 27 Mar 08:42:44 08:44:23 12° 87° (E) 08:46:01 437.345
PRISM 27 Mar 08:45:05 08:48:07 21° 63° (ENE) 08:51:11 437.425
